Location: Gleizolles
(44.4833°N, 6.7667°E)
Time: 15:14:33
(UTC+00:00)

Vanguard 1 - Pass Details

Date: 03 July 2024
Orbit: 650 x 3826 km, 34.3° (Epoch: 22 July)

Event Time Altitude Azimuth Distance (km) Brightness Sun altitude
Rises 06:52:34 0° 222° (SW) 7,713 14.2 29.0°
Reaches altitude 10° 06:58:56 10° 215° (SW) 6,367 13.9 30.1°
Maximum altitude 07:14:36 35° 160° (SSE) 3,460 13.4 32.9°
Drops below altitude 10° 07:24:19 10° 100° (E) 3,981 14.6 34.7°
Sets 07:27:14 0° 90° (E) 4,613 14.5 35.2°
